Back to catalog

COSMOS 1024 DEB

LostHEO
NORAD 32968·DEBRIS·🇷🇺 Russia

Launched Jun 28, 1978 from Plesetsk Cosmodrome

Loading…

Next Passes (next 24 hours)

TLE

StaleSource: Space-Track

Epoch: Oct 29, 2011, 09:01 UTC

1 32968U 78066H   11302.37570699  .00000073  00000-0  00000+0 0  9997
2 32968  69.0129 213.8131 4938651 103.8946   7.8147  1.97202034 61791

Track COSMOS 1024 DEB in real time with AllMySat

Download on the App Store